Philip, SD

12:34 AM MDT on September 29, 2016 (GMT -0600)
Philip

Weather History for KPHP - December, 2010

Change the Weather History Date:

Sunday, December 12, 2010

  Actual Average Record
Temperature  
Mean Temperature 1 °F 23 °F  
Max Temperature 12 °F 36 °F 72 °F (2014)
Min Temperature -10 °F 11 °F -20 °F (2000)
Degree Days  
Heating Degree Days 64 42  
Month to date heating degree days 549 481  
Since 1 July heating degree days 1689 2116  
Cooling Degree Days 0 0  
Month to date cooling degree days 0 0  
Year to date cooling degree days 847 818  
Moisture  
Dew Point -2 °F    
Average Humidity 74    
Maximum Humidity 87    
Minimum Humidity 61    
Precipitation  
Precipitation 0.01 in 0.01 in 0.10 in (1968)
Month to date precipitation 0.08 0.18  
Year to date precipitation 15.23 17.10  
Sea Level Pressure  
Sea Level Pressure 30.38 in    
Wind  
Wind Speed 8 mph (East)    
Max Wind Speed 17 mph    
Max Gust Speed 21 mph    
Visibility 8 miles    
Events Snow    
T = Trace of Precipitation, MM = Missing Value Source: NWS Daily Summary

Daily Weather History Graph

Daily Weather History Graph

Search for Another Location

Airport or City:

Trip Planner

Search our weather history database for the weather conditions in past years. The results will help you decide how hot, cold, wet, or windy it might be!

Date:

Astronomy

Dec. 12, 2010 Rise Set
Actual Time 7:12 AM MST 4:08 PM MST
Civil Twilight 6:39 AM MST 4:41 PM MST
Nautical Twilight 6:02 AM MST 5:17 PM MST
Astronomical Twilight 5:27 AM MST 5:52 PM MST
Moon 11:16 AM MST (12/12) 11:24 PM MST (12/12)
Length of Visible Light 10h 02m
Length of Day
8h 56m
Waxing Crescent, 43% of the Moon is Illuminated
Dec 12
Waxing Crescent
Dec 13
First Quarter
Dec 21
Full
Dec 27
Last Quarter
Jan 4
New

Hourly Weather History & Observations

Time (MST) Temp. Windchill Dew Point Humidity Pressure Visibility Wind Dir Wind Speed Gust Speed Precip Events Conditions
12:55 AM -8.0 °F - -11.9 °F 83% 30.56 in 10.0 mi Calm Calm - N/A   Clear
1:55 AM -7.1 °F - -11.0 °F 83% 30.55 in 10.0 mi Calm Calm - N/A   Clear
2:55 AM -8.0 °F -16.9 °F -11.9 °F 83% 30.53 in 10.0 mi WNW 3.5 mph - N/A   Clear
3:55 AM -8.0 °F - -13.0 °F 79% 30.53 in 10.0 mi Calm Calm - N/A   Clear
4:55 AM -9.0 °F -20.4 °F -14.1 °F 79% 30.53 in 10.0 mi East 4.6 mph - N/A   Clear
5:55 AM -7.1 °F -18.1 °F -11.9 °F 79% 30.55 in 10.0 mi ENE 4.6 mph - N/A   Clear
6:55 AM -9.0 °F -18.2 °F -14.1 °F 79% 30.56 in 10.0 mi ESE 3.5 mph - N/A   Clear
7:55 AM -7.1 °F -15.9 °F -11.9 °F 79% 30.56 in 10.0 mi East 3.5 mph - N/A   Clear
8:55 AM -2.0 °F -13.9 °F -7.1 °F 79% 30.56 in 10.0 mi East 5.8 mph - N/A   Clear
9:55 AM 1.9 °F -10.6 °F -2.9 °F 80% 30.55 in 10.0 mi East 6.9 mph - 0.00 in   Clear
10:55 AM 6.1 °F -8.7 °F -2.0 °F 69% 30.52 in 10.0 mi East 10.4 mph - N/A   Clear
11:55 AM 8.1 °F -7.0 °F -2.0 °F 64% 30.48 in 10.0 mi ESE 11.5 mph - N/A   Clear
12:55 PM 9.0 °F -5.1 °F -0.9 °F 64% 30.45 in 10.0 mi ESE 10.4 mph - N/A   Clear
1:35 PM 10.4 °F -2.4 °F 1.4 °F 67% 30.29 in 2.0 mi East 9.2 mph - N/A   Haze
1:45 PM 10.4 °F -3.3 °F 1.4 °F 67% 30.28 in 10.0 mi East 10.4 mph - N/A   Clear
1:55 PM 12.0 °F -1.3 °F 1.9 °F 64% 30.43 in 10.0 mi East 10.4 mph - N/A   Clear
2:55 PM 10.9 °F -4.7 °F 1.9 °F 67% 30.42 in 10.0 mi East 13.8 mph - N/A   Partly Cloudy
3:55 PM 10.9 °F -3.4 °F 1.9 °F 67% 30.42 in 10.0 mi East 11.5 mph - N/A   Overcast
4:55 PM 9.0 °F -5.9 °F 1.0 °F 70% 30.41 in 10.0 mi East 11.5 mph - N/A   Overcast
5:55 PM 9.0 °F -8.5 °F -0.9 °F 64% 30.39 in 10.0 mi ESE 16.1 mph - N/A   Overcast
6:55 PM 9.0 °F -6.6 °F -0.9 °F 64% 30.38 in 10.0 mi East 12.7 mph - N/A   Overcast
7:55 PM 9.0 °F -7.3 °F -2.0 °F 61% 30.35 in 10.0 mi ESE 13.8 mph 19.6 mph N/A   Overcast
8:55 PM 8.1 °F -5.3 °F -0.9 °F 67% 30.31 in 10.0 mi East 9.2 mph - N/A   Overcast
9:55 PM 9.0 °F -5.1 °F 1.9 °F 73% 30.28 in 2.5 mi East 10.4 mph - 0.00 in Snow Light Snow
10:15 PM 8.6 °F -7.0 °F 3.2 °F 79% 30.13 in 1.5 mi East 12.7 mph - 0.00 in Snow Light Snow
10:26 PM 8.6 °F -7.0 °F 3.2 °F 79% 30.12 in 2.5 mi East 12.7 mph - 0.01 in Snow Light Snow
10:34 PM 8.6 °F -7.7 °F 3.2 °F 79% 30.13 in 3.0 mi East 13.8 mph - 0.01 in Snow Light Snow
10:45 PM 8.6 °F -6.3 °F 3.2 °F 79% 30.13 in 3.0 mi East 11.5 mph - 0.01 in Snow Light Snow
10:55 PM 9.0 °F -6.6 °F 3.9 °F 80% 30.25 in 3.0 mi East 12.7 mph - 0.01 in Snow Light Snow
11:15 PM 8.6 °F -6.3 °F 5.0 °F 85% 30.12 in 2.5 mi ESE 11.5 mph - 0.00 in Snow Light Snow
11:47 PM 10.4 °F -4.1 °F 6.8 °F 85% 30.09 in 2.0 mi East 11.5 mph - 0.00 in Snow Light Snow
11:55 PM 10.0 °F -5.9 °F 6.1 °F 84% 30.22 in 2.0 mi East 13.8 mph - 0.00 in Snow Light Snow